Вернуться в каталог

FENGYUN 1C DEB

АктивенSSO
NORAD 31482·DEBRIS·🇨🇳 China

Запущен May 10, 1999 с Taiyuan Satellite Launch Center

Loading…

Ближайшие Пролёты (ближайшие 24 часа)

TLE

СвежийSource: Space-Track

Эпоха: Sep 14, 2026, 05:41 UTC

1 31482U 99025BVW 26257.23701597  .00001045  00000-0  35389-3 0  9990
2 31482  98.3881 258.7514 0088383 178.3716 242.3964 14.36626830 10776

Отслеживайте FENGYUN 1C DEB в реальном времени с AllMySat

Download on the App Store